Simultaneous Nadir Overpasses (SNOs) Predictions

Prediction of SNOs between METOP-B and TERRA Satellite Orbit:

Table of predicted SNOs for the next 14.0 days since TLE Epoch: 12/17/2016
Index Date (METOP-B) Time (METOP-B) Lat,Lon (METOP-B) SZA (METOP-B ) Date (TERRA) Time (TERRA) Lat,Lon (TERRA) SZA (TERRA ) Distance(km) Time Diff (sec)
1 12/17/2016 10:53:43 81.29, 63.38 107.34 12/17/2016 10:54:23 81.29, 63.34 107.35 0.76 40
2 12/17/2016 11:44:23 -81.30,-128.85 72.61 12/17/2016 11:43:49 -81.30,-128.70 72.60 2.69 34
3 12/20/2016 06:28:05 81.29, 129.76 107.36 12/20/2016 06:28:37 81.28, 129.66 107.35 2.07 32
4 12/20/2016 07:18:45 -81.30, -62.43 72.59 12/20/2016 07:18:03 -81.30, -62.37 72.60 1.04 42
5 12/23/2016 02:02:28 81.29,-163.87 107.31 12/23/2016 02:02:51 81.29,-163.70 107.34 2.92 23
6 12/23/2016 02:53:08 -81.30, 3.96 72.64 12/23/2016 02:52:18 -81.29, 3.90 72.67 1.31 50
7 12/25/2016 21:36:50 81.29, -97.13 107.25 12/25/2016 21:37:05 81.30, -97.11 107.26 0.79 15
8 12/25/2016 22:27:31 -81.30, 70.34 72.74 12/25/2016 22:26:32 -81.30, 70.50 72.75 2.72 59
9 12/28/2016 17:11:12 81.29, -30.80 107.07 12/28/2016 17:11:19 81.28, -30.95 107.05 2.58 7




NCC Satellite Simultaneous Nadir Overpasses (SNOs) Prediction Service
